GFSFLT2_sfc_thetae_177.txt.gz
Theta_e
292 293 292 292 293 293 293 292 293 296 296 296 296 296 296 296 297 297 298 298 299 300 300 301 303 304 304
290 291 290 291 290 291 292 292 292 294 295 295 296 296 296 296 296 296 296 296 297 297 297 298 299 299 300
287 289 289 290 290 291 290 290 291 294 294 294 295 295 295 295 295 295 295 295 295 295 295 295 296 297 298
287 287 288 290 289 287 287 288 288 291 292 293 294 293 293 293 293 293 293 293 294 294 294 294 294 295 296
286 286 286 286 285 287 285 286 288 289 287 288 289 288 289 291 291 292 292 292 293 293 294 294 294 295 296
286 284 285 285 286 285 284 283 281 288 286 285 288 286 287 288 291 292 292 292 293 292 292 293 293 294 295
285 284 284 285 286 283 283 283 282 285 285 283 286 284 287 288 290 291 292 292 292 292 292 292 293 293 293
286 286 287 288 287 285 284 283 284 285 286 280 284 283 285 286 290 291 291 291 291 292 292 292 292 292 293
290 290 290 289 288 285 282 281 279 281 284 282 282 282 284 284 286 290 290 291 291 292 292 292 292 292 291
286 286 286 286 288 285 283 279 278 278 282 281 282 282 279 283 284 285 286 290 291 291 291 291 291 289 288
284 283 283 284 284 284 284 282 279 279 283 283 281 281 281 280 281 283 285 285 286 287 289 291 292 291 287
281 281 281 282 282 283 284 284 285 283 284 284 282 281 280 280 279 282 283 284 285 285 286 289 290 290 290
280 280 281 282 282 282 283 283 283 283 285 284 283 282 281 279 279 280 281 282 284 285 285 285 285 285 285
280 280 282 281 280 281 280 280 280 280 282 282 282 283 281 281 281 280 281 279 283 284 284 284 284 285 287
280 279 279 280 279 281 280 279 278 278 278 280 282 282 283 281 279 280 281 282 283 284 284 282 283 284 286
279 279 278 279 279 279 279 278 277 278 277 279 281 280 279 279 285 281 282 281 282 282 283 281 281 283 284
278 278 279 278 278 277 278 278 277 277 278 280 279 278 276 273 278 285 279 279 280 280 281 282 281 281 282

GFSFLT2_sfc_thetae_183.txt.gz
Theta_e
286 287 286 285 287 287 288 287 288 294 295 295 296 296 296 296 297 297 296 296 296 297 297 298 298 299 300
284 284 284 285 285 284 288 289 286 291 293 293 293 294 294 294 294 295 294 294 294 295 296 296 296 297 297
282 283 283 284 283 284 284 284 287 290 290 291 292 292 292 293 293 293 292 292 293 294 295 295 296 296 296
282 282 282 284 282 280 281 283 283 286 287 288 290 290 291 291 291 290 291 292 293 293 294 294 294 295 296
281 281 281 280 279 281 280 283 282 282 281 283 284 284 285 288 288 289 291 292 293 294 294 294 293 294 294
281 280 279 279 279 280 282 281 278 281 281 281 283 282 283 284 288 290 290 292 292 292 292 293 293 294 294
280 279 279 281 281 281 280 278 279 282 281 278 281 279 282 284 288 289 290 291 291 291 291 292 292 293 293
282 282 282 283 282 281 280 281 281 281 280 276 279 278 281 283 287 288 290 290 290 290 291 291 291 292 292
287 287 288 287 286 282 279 278 277 278 280 278 279 279 280 281 281 287 288 288 289 289 290 290 290 291 289
281 282 283 282 286 281 279 278 277 276 279 278 279 279 276 279 280 281 281 286 287 288 288 289 290 287 286
279 279 279 279 280 280 280 279 277 277 281 280 277 279 279 278 278 280 280 280 282 283 286 287 289 289 285
278 278 278 279 278 279 279 279 280 280 280 280 277 278 276 275 276 279 280 281 281 280 281 284 287 289 289
279 278 278 278 279 278 279 279 279 279 281 280 278 278 277 276 276 278 279 281 281 277 281 281 281 282 282
279 279 280 277 277 278 277 279 276 277 279 280 279 278 275 277 278 277 279 277 280 280 280 280 281 281 281
279 278 278 277 276 277 278 278 274 274 275 277 278 278 278 277 275 276 277 277 278 278 278 278 280 281 281
279 277 277 275 275 277 275 276 275 274 274 275 275 273 273 273 280 274 276 274 277 277 279 277 277 279 280
278 275 274 275 276 273 274 275 274 274 273 274 266 266 270 269 274 280 274 275 276 275 276 276 276 277 279

GFSFLT2_sfc_thetae_186.txt.gz
Theta_e
285 286 284 284 285 285 287 285 286 292 293 294 294 294 294 295 295 295 295 296 296 296 297 298 298 299 298
282 283 283 284 284 283 286 287 285 290 292 292 292 292 292 293 293 293 293 293 294 294 295 296 297 297 298
281 282 282 283 283 283 283 283 286 290 290 290 291 291 291 291 292 291 291 292 293 293 294 294 295 297 296
281 281 281 283 281 280 280 281 282 286 287 287 289 289 289 290 290 289 290 291 292 293 294 293 294 295 295
281 281 280 279 279 280 280 282 281 281 280 282 282 282 283 286 286 288 290 291 292 293 293 292 293 294 295
280 279 278 279 279 279 280 278 277 280 280 280 280 280 281 282 287 289 289 290 291 293 292 291 292 294 293
280 279 278 279 282 279 278 276 277 281 280 278 279 278 281 283 287 288 289 289 290 290 290 291 292 292 292
281 281 281 282 281 280 281 278 280 280 279 276 278 278 281 282 286 287 288 288 289 289 290 290 290 291 291
287 287 287 286 285 280 277 276 275 277 279 279 278 278 279 279 281 286 288 287 288 288 289 289 289 290 289
280 281 282 281 284 280 278 274 275 275 278 277 277 277 274 278 279 281 280 285 287 287 288 288 289 285 286
278 278 278 278 279 279 279 277 276 276 279 280 275 276 277 276 277 279 280 280 281 282 285 286 287 287 283
277 277 277 277 278 278 279 279 279 279 280 279 276 276 275 274 274 278 279 280 280 279 280 283 285 286 287
277 277 277 277 279 278 279 279 279 279 281 280 276 276 275 275 274 276 277 279 279 276 280 279 280 280 280
278 278 278 277 276 277 276 277 277 276 279 279 279 277 272 276 276 275 277 275 278 278 279 278 279 280 280
277 278 279 278 276 277 276 274 272 273 274 276 277 277 276 275 273 274 274 275 276 277 276 277 278 279 279
275 276 277 276 275 276 273 268 271 273 273 274 273 273 269 271 279 274 274 274 275 276 276 274 275 277 278
274 273 275 275 275 272 272 273 272 272 272 273 267 262 269 269 273 281 274 275 275 274 275 275 274 276 277

GFSFLT2_sfc_thetae_192.txt.gz
Theta_e
285 285 283 283 284 284 284 283 283 290 293 293 293 293 293 293 293 294 294 295 295 296 296 297 297 297 299
282 283 282 281 281 281 284 285 282 288 291 292 292 292 292 292 292 292 292 292 292 293 294 295 296 297 297
282 282 281 280 281 280 281 280 284 288 288 289 290 290 290 290 291 291 290 290 291 292 293 293 294 296 296
281 280 280 281 280 279 279 280 281 283 285 287 288 288 288 289 289 288 288 290 291 292 293 293 294 294 294
280 280 279 279 278 279 279 279 280 279 280 280 280 281 281 284 285 286 289 289 290 291 291 292 292 292 293
279 278 278 278 278 278 278 277 276 279 279 279 280 279 279 280 285 287 288 289 290 290 290 290 291 291 292
279 278 278 278 279 278 277 276 277 279 278 276 278 277 280 281 285 287 288 289 290 290 289 290 290 290 291
281 280 279 280 280 279 278 277 278 279 278 273 276 276 279 280 284 287 288 288 287 288 288 289 288 289 290
286 286 286 286 284 279 276 275 275 276 277 277 276 277 278 278 279 285 286 285 286 286 287 287 287 288 287
279 280 281 280 283 279 277 275 275 274 277 276 276 276 273 276 278 279 279 283 284 285 285 286 286 284 283
278 277 278 278 278 278 278 276 275 275 278 279 277 276 274 274 276 278 278 278 278 279 283 284 285 284 280
277 276 277 277 277 278 278 278 278 277 279 278 275 275 274 273 273 276 277 278 277 277 278 281 283 283 284
276 276 277 277 279 278 278 278 278 278 279 278 276 276 275 273 273 274 275 276 277 276 276 277 277 278 277
276 277 278 276 276 278 276 276 274 274 278 277 277 276 273 274 274 273 274 273 275 275 276 276 277 278 277
276 275 277 277 276 277 274 271 271 271 271 274 275 276 275 273 272 273 273 273 275 275 275 275 276 277 277
273 274 274 273 273 273 270 266 269 270 270 271 271 269 268 270 277 272 273 273 275 276 276 274 274 276 277
269 269 271 267 273 270 271 269 269 269 270 270 264 267 267 266 271 279 274 275 274 274 275 274 273 275 277

GFSFLT2_sfc_thetae_195.txt.gz
Theta_e
288 288 288 289 289 287 288 288 289 290 292 293 293 293 293 293 294 294 294 294 295 295 296 296 297 298 298
287 287 288 288 286 286 287 287 287 288 291 291 292 292 292 292 292 292 292 292 292 293 294 295 296 296 297
285 287 287 286 285 286 286 286 286 287 288 289 290 290 290 290 291 290 290 290 291 292 293 294 295 295 297
285 285 285 285 285 283 284 286 285 286 286 287 288 288 288 288 288 287 288 289 291 292 292 291 292 293 294
283 283 284 283 282 283 282 283 285 285 284 285 285 285 285 286 285 286 288 289 290 291 291 292 291 292 292
283 282 282 282 283 283 282 280 279 284 282 282 284 283 284 285 286 287 288 289 290 291 292 290 290 291 291
283 283 282 283 283 282 281 281 280 282 281 280 283 282 284 284 286 286 288 288 288 288 288 289 289 290 290
285 284 284 284 284 283 282 280 281 282 282 277 282 281 283 284 285 285 288 287 287 287 287 287 288 288 289
286 285 285 285 285 282 279 278 277 278 281 279 280 279 281 281 283 284 285 285 285 286 286 286 286 287 286
282 282 282 282 283 282 280 277 277 276 280 277 278 278 276 280 282 282 282 283 284 284 285 285 285 284 284
281 281 281 281 282 282 282 280 278 276 280 279 278 278 276 277 279 280 281 281 281 282 283 283 284 284 282
280 280 280 280 281 282 282 282 282 280 281 281 277 276 275 274 274 279 279 280 281 280 281 282 283 284 284
279 279 280 281 281 281 281 281 281 281 280 280 279 278 276 275 274 275 277 278 280 280 280 280 280 281 280
279 280 281 280 279 280 278 278 277 277 279 279 279 278 276 276 276 274 277 275 279 279 279 280 280 281 281
280 279 279 279 278 279 278 277 274 274 275 277 278 278 277 276 273 275 276 277 278 279 278 278 279 280 281
279 278 277 276 276 277 277 275 273 273 274 275 275 274 275 277 278 275 276 277 279 279 278 277 277 279 281
277 277 276 275 275 274 274 273 273 273 274 275 273 272 270 270 276 279 276 277 277 277 278 278 276 278 280